PWSweather.com
Personal Weather Stations
Station Observations
IMAZOWIE6
WarszawaPL

WarszawaPL

Lat: 52.27957, Lon: 21.05489

Elevation: 100

Station Type: WS1080

http://stacjapogody.waw.pl/

Latest ConditionsUpdated 9:05:11 AM GMT+01:01 Sunday, Jun 16, 2019
Currently Today's Max Today's Min Today's Average
Temperature 87.6°F30.9°C 88.2°F31.2°C 75.9°F24.4°C 79.8°F26.6°C
Dew Point -164.0°F-108.9°C -164.0°F-108.9°C -165.2°F-109.6°C -164.8°F-109.3°C
Winds Calm Calm Calm -Calm - - Calm Calm
Wind Gusts -- -- - -
Humidity - - - -
Pressure 29.22 in989.5 mb 29.32 in992.9 mb 29.11 in985.8 mb -
Hour Temp Dew Point Humidity Winds Wind Gusts Pressure Precip Precip Rate Daily Precip Total
09:05 AM 87.6°F30.9°C -164.0°F-108.9°C - Calm Calm -- 29.22 in989.5 mb 0.00 in0.0 mm 0.00 in0.0 mm 0.00 in0.0 mm
08:50 AM 86.7°F30.4°C -164.1°F-108.9°C - Calm Calm -- 29.23 in989.8 mb 0.00 in0.0 mm 0.00 in0.0 mm 0.00 in0.0 mm
08:35 AM 87.4°F30.8°C -164.1°F-108.9°C - Calm Calm -- 29.24 in990.2 mb 0.00 in0.0 mm 0.00 in0.0 mm 0.00 in0.0 mm
08:20 AM 88.2°F31.2°C -164.0°F-108.9°C - Calm Calm -- 29.26 in990.9 mb 0.00 in0.0 mm 0.00 in0.0 mm 0.00 in0.0 mm
08:05 AM 87.8°F31.0°C -164.0°F-108.9°C - Calm Calm -- 29.28 in991.5 mb 0.00 in0.0 mm 0.00 in0.0 mm 0.00 in0.0 mm
07:50 AM 87.1°F30.6°C -164.1°F-108.9°C - Calm Calm -- 29.28 in991.5 mb 0.00 in0.0 mm 0.00 in0.0 mm 0.00 in0.0 mm
07:35 AM 86.7°F30.4°C -164.1°F-108.9°C - Calm Calm -- 29.28 in991.5 mb 0.00 in0.0 mm 0.00 in0.0 mm 0.00 in0.0 mm
07:20 AM 83.1°F28.4°C -164.5°F-109.2°C - Calm Calm -- 29.28 in991.5 mb 0.00 in0.0 mm 0.00 in0.0 mm 0.00 in0.0 mm
07:05 AM 81.3°F27.4°C -164.7°F-109.3°C - Calm Calm -- 29.29 in991.9 mb 0.00 in0.0 mm 0.00 in0.0 mm 0.00 in0.0 mm
06:50 AM 80.6°F27.0°C -164.7°F-109.3°C - Calm Calm -- 29.30 in992.2 mb 0.00 in0.0 mm 0.00 in0.0 mm 0.00 in0.0 mm
06:35 AM 79.5°F26.4°C -164.8°F-109.3°C - Calm Calm -- 29.30 in992.2 mb 0.00 in0.0 mm 0.00 in0.0 mm 0.00 in0.0 mm
06:20 AM 78.6°F25.9°C -164.9°F-109.4°C - Calm Calm -- 29.30 in992.2 mb 0.00 in0.0 mm 0.00 in0.0 mm 0.00 in0.0 mm
06:05 AM 77.9°F25.5°C -165.0°F-109.4°C - Calm Calm -- 29.31 in992.6 mb 0.00 in0.0 mm 0.00 in0.0 mm 0.00 in0.0 mm
05:50 AM 77.5°F25.3°C -165.0°F-109.4°C - Calm Calm -- 29.32 in992.9 mb 0.00 in0.0 mm 0.00 in0.0 mm 0.00 in0.0 mm
05:35 AM 76.5°F24.7°C -165.2°F-109.6°C - Calm Calm -- 29.32 in992.9 mb 0.00 in0.0 mm 0.00 in0.0 mm 0.00 in0.0 mm
05:20 AM 76.5°F24.7°C -165.2°F-109.6°C - Calm Calm -- 29.32 in992.9 mb 0.00 in0.0 mm 0.00 in0.0 mm 0.00 in0.0 mm
05:05 AM 76.5°F24.7°C -165.2°F-109.6°C - Calm Calm -- 29.32 in992.9 mb 0.00 in0.0 mm 0.00 in0.0 mm 0.00 in0.0 mm
04:50 AM 76.3°F24.6°C -165.2°F-109.6°C - Calm Calm -- 29.31 in992.6 mb 0.00 in0.0 mm 0.00 in0.0 mm 0.00 in0.0 mm
04:35 AM 76.1°F24.5°C -165.2°F-109.6°C - Calm Calm -- 29.31 in992.6 mb 0.00 in0.0 mm 0.00 in0.0 mm 0.00 in0.0 mm
04:20 AM 76.3°F24.6°C -165.2°F-109.6°C - Calm Calm -- 29.30 in992.2 mb 0.00 in0.0 mm 0.00 in0.0 mm 0.00 in0.0 mm
04:05 AM 75.9°F24.4°C -165.2°F-109.6°C - Calm Calm -- 29.28 in991.5 mb 0.00 in0.0 mm 0.00 in0.0 mm 0.00 in0.0 mm
03:50 AM 76.1°F24.5°C -165.2°F-109.6°C - Calm Calm -- 29.26 in990.9 mb 0.00 in0.0 mm 0.00 in0.0 mm 0.00 in0.0 mm
03:35 AM 75.9°F24.4°C -165.2°F-109.6°C - Calm Calm -- 29.26 in990.9 mb 0.00 in0.0 mm 0.00 in0.0 mm 0.00 in0.0 mm
03:20 AM 76.3°F24.6°C -165.2°F-109.6°C - Calm Calm -- 29.26 in990.9 mb 0.00 in0.0 mm 0.00 in0.0 mm 0.00 in0.0 mm
03:05 AM 76.6°F24.8°C -165.1°F-109.5°C - Calm Calm -- 29.24 in990.2 mb 0.00 in0.0 mm 0.00 in0.0 mm 0.00 in0.0 mm
02:50 AM 76.8°F24.9°C -165.1°F-109.5°C - Calm Calm -- 29.23 in989.8 mb 0.00 in0.0 mm 0.00 in0.0 mm 0.00 in0.0 mm
02:35 AM 77.2°F25.1°C -165.1°F-109.5°C - Calm Calm -- 29.22 in989.5 mb 0.00 in0.0 mm 0.00 in0.0 mm 0.00 in0.0 mm
02:20 AM 77.7°F25.4°C -165.0°F-109.4°C - Calm Calm -- 29.22 in989.5 mb 0.00 in0.0 mm 0.00 in0.0 mm 0.00 in0.0 mm
02:05 AM 78.3°F25.7°C -165.0°F-109.4°C - Calm Calm -- 29.21 in989.2 mb 0.00 in0.0 mm 0.00 in0.0 mm 0.00 in0.0 mm
01:50 AM 79.2°F26.2°C -164.9°F-109.4°C - Calm Calm -- 29.19 in988.5 mb 0.00 in0.0 mm 0.00 in0.0 mm 0.00 in0.0 mm
01:35 AM 79.3°F26.3°C -164.9°F-109.4°C - Calm Calm -- 29.18 in988.1 mb 0.00 in0.0 mm 0.00 in0.0 mm 0.00 in0.0 mm
01:20 AM 79.2°F26.2°C -164.9°F-109.4°C - Calm Calm -- 29.17 in987.8 mb 0.00 in0.0 mm 0.00 in0.0 mm 0.00 in0.0 mm
01:05 AM 79.2°F26.2°C -164.9°F-109.4°C - Calm Calm -- 29.16 in987.5 mb 0.00 in0.0 mm 0.00 in0.0 mm 0.00 in0.0 mm
12:50 AM 79.0°F26.1°C -164.9°F-109.4°C - Calm Calm -- 29.13 in986.5 mb 0.00 in0.0 mm 0.00 in0.0 mm 0.00 in0.0 mm
12:35 AM 79.2°F26.2°C -164.9°F-109.4°C - Calm Calm -- 29.13 in986.5 mb 0.00 in0.0 mm 0.00 in0.0 mm 0.00 in0.0 mm
12:20 AM 79.2°F26.2°C -164.9°F-109.4°C - Calm Calm -- 29.11 in985.8 mb 0.00 in0.0 mm 0.00 in0.0 mm 0.00 in0.0 mm
12:05 AM 79.7°F26.5°C -164.8°F-109.3°C - Calm Calm -- 29.11 in985.8 mb 0.00 in0.0 mm 0.00 in0.0 mm 0.00 in0.0 mm